SM6KNE Weather Reports


Display with metric or nautical units.
time (UTC)temp
F
wind
direction
speed
MPH
gust
MPH
rain 1hr
in
rain 24hr
in
rain mn
in
humidity
%
barometer
mb
20260904103044 62 260 7.0 8.0 0.00 0.00 0.00 78 999.0
20260904102018 63 277 8.0 14.0 0.00 0.00 0.00 74 999.0
20260904101022 63 266 9.0 11.0 0.00 0.00 0.00 74 999.0
20260904100022 63 280 8.0 13.0 0.00 0.00 0.00 74 999.0
20260904095016 63 265 9.0 11.0 0.00 0.00 0.00 74 999.0
20260904094017 63 255 11.0 13.0 0.00 0.00 0.00 75 999.0
20260904093045 63 271 10.0 13.0 0.00 0.00 0.00 75 1000.0
20260904092015 62 247 8.0 11.0 0.00 0.00 0.00 77 1000.0
20260904091043 62 259 10.0 12.0 0.00 0.00 0.00 77 1000.0
20260904090043 62 268 10.0 12.0 0.00 0.00 0.00 78 1000.0
20260904085043 61 263 9.0 11.0 0.00 0.00 0.00 79 1000.0
20260904084033 61 258 9.0 17.0 0.00 0.00 0.00 80 1000.0
20260904083043 61 271 7.0 10.0 0.00 0.00 0.00 81 1000.0
20260904082042 61 248 9.0 13.0 0.00 0.00 0.00 81 1000.0
20260904081044 61 251 8.0 11.0 0.00 0.00 0.00 83 1000.0
20260904080043 61 266 7.0 8.0 0.00 0.00 0.00 83 1000.0
20260904075103 61 261 7.0 8.0 0.00 0.00 0.00 84 1000.0
20260904074034 60 251 9.0 11.0 0.00 0.00 0.00 84 1000.0
20260904073044 60 238 8.0 10.0 0.00 0.00 0.00 85 1000.0
20260904072016 60 261 6.0 8.0 0.00 0.00 0.00 86 1000.0
20260904071043 59 259 7.0 9.0 0.00 0.00 0.00 87 1000.0
20260904070043 59 271 8.0 11.0 0.00 0.00 0.00 87 1000.0
20260904065019 59 245 5.0 8.0 0.00 0.00 0.00 88 1000.0
20260904064036 59 242 6.0 10.0 0.00 0.00 0.00 88 1000.0
20260904063038 58 280 4.0 6.0 0.00 0.00 0.00 89 1001.0
20260904062103 58 252 7.0 9.0 0.00 0.00 0.00 89 1001.0
20260904061103 58 248 7.0 10.0 0.00 0.00 0.00 89 1001.0
20260904060036 58 296 6.0 8.0 0.00 0.00 0.00 90 1001.0
20260904055043 58 271 6.0 8.0 0.00 0.00 0.00 90 1001.0
20260904054042 58 266 5.0 7.0 0.00 0.00 0.00 91 1001.0
20260904053034 57 254 6.0 7.0 0.00 0.00 0.00 91 1001.0
20260904052034 57 261 5.0 6.0 0.00 0.00 0.00 92 1001.0
20260904051018 57 277 5.0 9.0 0.00 0.00 0.00 92 1001.0
20260904050030 57 248 5.0 6.0 0.00 0.00 0.00 92 1001.0
20260904045028 57 259 6.0 8.0 0.00 0.00 0.00 92 1001.0
20260904044027 57 230 7.0 11.0 0.00 0.00 0.00 93 1001.0
20260904043024 57 271 6.0 8.0 0.00 0.00 0.00 93 1001.0
20260904042022 57 257 8.0 11.0 0.00 0.00 0.00 93 1001.0
20260904041024 57 262 8.0 10.0 0.00 0.00 0.00 94 1001.0
20260904040023 57 277 6.0 8.0 0.00 0.00 0.00 94 1001.0
20260904035056 57 252 5.0 6.0 0.00 0.00 0.00 95 1001.0
20260904034043 57 253 7.0 10.0 0.00 0.00 0.00 95 1001.0
20260904033026 57 243 7.0 10.0 0.00 0.00 0.00 95 1001.0
20260904032123 57 268 8.0 10.0 0.00 0.00 0.00 95 1001.0
20260904031043 57 268 8.0 11.0 0.00 0.00 0.00 95 1001.0
20260904030024 57 257 6.0 10.0 0.00 0.00 0.00 95 1001.0
20260904025043 57 257 6.0 7.0 0.00 0.00 0.00 95 1001.0
20260904024106 57 262 5.0 7.0 0.00 0.00 0.00 95 1001.0
20260904023043 57 244 6.0 7.0 0.00 0.00 0.00 96 1002.0
20260904022042 57 258 7.0 9.0 0.00 0.00 0.00 96 1002.0
20260904021043 57 244 6.0 7.0 0.00 0.00 0.00 96 1002.0
20260904020024 57 237 7.0 8.0 0.00 0.00 0.00 96 1002.0
20260904015034 57 265 8.0 8.0 0.00 0.00 0.00 96 1002.0
20260904014018 57 260 6.0 8.0 0.00 0.00 0.00 97 1002.0
20260904013016 57 248 6.0 8.0 0.00 0.00 0.00 97 1002.0
20260904012028 57 274 6.0 9.0 0.00 0.00 0.00 97 1002.0
20260904011143 57 257 7.0 9.0 0.00 0.00 0.00 97 1002.0
20260904010016 57 263 7.0 9.0 0.00 0.00 0.00 97 1002.0
20260904005043 58 260 7.0 11.0 0.00 0.00 0.00 96 1003.0
20260904004046 58 266 6.0 10.0 0.00 0.00 0.00 96 1003.0
20260904003016 58 264 8.0 9.0 0.00 0.00 0.00 96 1003.0
20260904002103 58 252 5.0 8.0 0.00 0.00 0.00 96 1003.0
20260904001043 58 248 7.0 11.0 0.00 0.00 0.00 96 1003.0
20260904000134 58 265 5.0 6.0 0.00 0.00 0.00 96 1003.0
20260903235029 58 264 5.0 6.0 0.00 0.00 0.00 96 1003.0
20260903234057 58 269 5.0 7.0 0.00 0.00 0.00 95 1003.0
20260903233034 58 252 6.0 8.0 0.00 0.00 0.00 95 1003.0
20260903232033 58 231 4.0 10.0 0.00 0.00 0.00 95 1003.0
20260903231030 58 0.0 0.0 0.00 0.00 0.00 95 1003.0
20260903230029 58 0.0 0.0 0.00 0.00 0.00 95 1003.0
20260903225046 58 0.0 0.0 0.00 0.00 0.00 95 1003.0
20260903224024 58 0.0 0.0 0.00 0.00 0.00 95 1003.0
20260903223027 58 0.0 0.0 0.00 0.00 0.00 95 1003.0
20260903222024 58 0.0 0.0 0.00 0.00 0.00 95 1003.0
20260903221023 58 0.0 0.0 0.00 0.00 0.00 95 1003.0
20260903220016 58 0.0 0.0 0.00 0.00 0.00 94 1003.0
20260903215116 58 0.0 0.0 0.00 0.00 0.00 94 1003.0
20260903214042 58 0.0 0.0 0.00 0.00 0.00 94 1003.0
20260903213044 58 0.0 0.0 0.00 0.00 0.00 94 1004.0
20260903212043 58 0.0 0.0 0.00 0.00 0.00 94 1004.0
20260903211036 58 0.0 0.0 0.00 0.00 0.00 94 1004.0
20260903210043 59 0.0 0.0 0.00 0.00 0.00 94 1004.0
20260903205043 58 0.0 0.0 0.00 0.00 0.00 93 1004.0
20260903204034 58 0.0 0.0 0.00 0.00 0.00 93 1004.0
20260903203042 58 0.0 0.0 0.00 0.00 0.00 93 1004.0
20260903202044 58 0.0 0.0 0.00 0.00 0.00 93 1004.0
20260903201051 58 0.0 0.0 0.00 0.00 0.00 92 1004.0
20260903200043 59 0.0 0.0 0.00 0.00 0.00 92 1004.0
20260903195043 59 0.0 0.0 0.00 0.00 0.00 92 1004.0
20260903194016 59 0.0 0.0 0.00 0.00 0.00 92 1004.0
20260903193043 59 0.0 0.0 0.00 0.00 0.00 91 1005.0
20260903192043 59 0.0 0.0 0.00 0.00 0.00 91 1004.0
20260903191044 59 0.0 0.0 0.00 0.00 0.00 91 1005.0
20260903190048 59 0.0 0.0 0.00 0.00 0.00 90 1005.0
20260903185103 59 0.0 0.0 0.00 0.00 0.00 90 1005.0
20260903184043 60 0.0 0.0 0.00 0.00 0.00 90 1005.0
20260903183043 60 0.0 0.0 0.00 0.00 0.00 89 1005.0
20260903182056 60 0.0 0.0 0.00 0.00 0.00 89 1005.0
20260903181100 60 0.0 0.0 0.00 0.00 0.00 88 1005.0
20260903180043 60 0.0 0.0 0.00 0.00 0.00 88 1005.0
20260903175103 60 0.0 0.0 0.00 0.00 0.00 88 1005.0
20260903174103 60 0.0 0.0 0.00 0.00 0.00 88 1005.0
20260903173032 61 0.0 0.0 0.00 0.00 0.00 88 1005.0
20260903172103 61 0.0 0.0 0.00 0.00 0.00 87 1005.0
20260903171028 61 0.0 0.0 0.00 0.00 0.00 87 1005.0
20260903170036 61 0.0 0.0 0.00 0.00 0.00 87 1005.0
20260903165103 61 0.0 0.0 0.00 0.00 0.00 86 1005.0
20260903164046 61 0.0 0.0 0.00 0.00 0.00 86 1005.0
20260903163043 61 0.0 0.0 0.00 0.00 0.00 85 1006.0
20260903162022 61 0.0 0.0 0.00 0.00 0.00 85 1006.0
20260903161103 61 0.0 0.0 0.00 0.00 0.00 84 1006.0
20260903160113 62 0.0 0.0 0.00 0.00 0.00 84 1006.0
20260903155043 62 0.0 0.0 0.00 0.00 0.00 84 1006.0
20260903154043 62 0.0 0.0 0.00 0.00 0.00 83 1006.0
20260903153030 62 0.0 0.0 0.00 0.00 0.00 82 1006.0
20260903152043 63 0.0 0.0 0.00 0.00 0.00 82 1006.0
20260903151043 62 0.0 0.0 0.00 0.00 0.00 81 1006.0
20260903150108 62 0.0 0.0 0.00 0.00 0.00 80 1006.0
20260903145028 62 0.0 0.0 0.00 0.00 0.00 79 1006.9
20260903144043 63 0.0 0.0 0.00 0.00 0.00 78 1007.1
20260903143026 63 0.0 0.0 0.00 0.00 0.00 77 1007.1
20260903142022 64 0.0 0.0 0.00 0.00 0.00 76 1007.1
20260903141034 63 0.0 0.0 0.00 0.00 0.00 76 1007.1
20260903140023 64 0.0 0.0 0.00 0.00 0.00 76 1007.1
20260903135043 63 0.0 0.0 0.00 0.00 0.00 75 1007.1
20260903134043 64 270 0.0 1.0 0.00 0.00 0.00 75 1007.1
20260903133022 64 0.0 0.0 0.00 0.00 0.00 75 1007.1
20260903132043 64 293 0.0 3.0 0.00 0.00 0.00 75 1007.1
20260903131043 63 0.0 0.0 0.00 0.00 0.00 74 1007.1
20260903130041 63 248 0.0 2.0 0.00 0.00 0.00 74 1007.1
20260903125044 64 0.0 0.0 0.00 0.00 0.00 74 1007.1
20260903124016 64 293 1.0 3.0 0.00 0.00 0.00 73 1007.1
20260903123019 64 248 1.0 1.0 0.00 0.00 0.00 74 1007.1
20260903122100 63 0.0 0.0 0.00 0.00 0.00 74 1007.9
20260903121043 63 264 2.0 4.0 0.00 0.00 0.00 74 1008.1
20260903120017 63 258 2.0 6.0 0.00 0.00 0.00 74 1008.1
20260903115034 63 338 0.0 1.0 0.00 0.00 0.00 74 1008.1
20260903114032 63 258 3.0 6.0 0.00 0.00 0.00 73 1008.1
20260903113016 64 248 3.0 4.0 0.00 0.00 0.00 73 1008.1
20260903112028 64 264 1.0 6.0 0.00 0.00 0.00 72 1008.1
20260903111026 64 272 4.0 6.0 0.00 0.00 0.00 72 1008.1
20260903110024 64 255 3.0 4.0 0.00 0.00 0.00 72 1008.1
20260903105024 64 276 1.0 3.0 0.00 0.00 0.00 73 1009.1
20260903104024 64 306 2.0 4.0 0.00 0.00 0.00 72 1009.1